Location: ??
(35.3890°N, 139.2628°E)
Time: 22:39:01
(UTC+00:00)

Daily predictions for brighter satellites

Satellite Brightness Start Highest point End
(mag) Time Altitude Azimuth Time Altitude Azimuth Time Altitude Azimuth
Cosmos 2237 4.1 12:01:22 17° SSW 12:05:53 83° ESE 12:11:36 10° NNE
ERS-1 Rocket 3.3 12:04:49 39° ESE 12:06:06 49° ENE 12:10:57 10° N
Cosmos 1459 Rocket 4.3 12:01:09 10° N 12:06:55 45° E 12:08:38 36° ESE
Terra 2.6 12:08:30 33° E 12:09:12 34° ENE 12:13:30 10° N
Okean 1 Rocket 3.9 12:05:15 10° NNW 12:09:25 46° W 12:11:22 27° SSW
Lacrosse 5 2.4 12:05:48 10° NNW 12:10:44 50° NE 12:12:15 37° E
Cosmos 1455 Rocket 3.2 12:09:45 10° N 12:14:07 53° E 12:14:26 51° E
Cosmos 1741 Rocket 4.3 12:14:22 10° N 12:19:30 51° ENE 12:20:28 45° ESE
KORONAS-FOTON 3.8 12:21:07 68° WSW 12:21:23 72° W 12:25:11 10° N
Cosmos 1626 2.9 12:23:20 42° NE 12:23:20 42° NE 12:26:04 10° NNE
H-2A R/B 3.9 12:20:43 10° NNE 12:23:58 45° ENE 12:23:58 45° ENE
Cosmos 2123 Rocket 4.2 12:25:34 45° SE 12:26:56 53° E 12:33:03 10° NNE
ATLAS 2A CENTAUR R/B 4.0 12:22:16 10° SW 12:30:19 24° SSW 12:30:19 24° SSW
Meteor 2-11 Rocket 4.4 12:28:18 10° N 12:34:23 69° E 12:35:43 53° SE
Resurs 01 Rocket 4.1 12:32:27 10° SW 12:35:00 15° W 12:37:37 10° WNW
Cosmos 1536 Rocket 4.4 12:35:50 38° ENE 12:35:50 38° ENE 12:39:14 10° NNE
Cosmos 1844 Rocket 3.2 12:29:47 10° N 12:35:12 44° ENE 12:36:10 41° E
BREEZE M DEB (TANK) 4.3 12:36:37 45° S 12:38:14 62° SE 12:54:33 10° NE
Cosmos 2100 Rocket 4.0 12:36:31 10° N 12:42:54 80° W 12:44:44 49° S
Cosmos 2333 4.1 12:42:41 62° S 12:43:35 75° ESE 12:49:19 10° NNE
Cosmos 2263 Rocket 3.8 12:42:37 10° NW 12:47:13 26° WSW 12:49:15 21° SW
Cosmos 1674 4.2 12:47:31 29° W 12:47:54 29° WNW 12:51:12 10° NNW
Cosmos 2333 Rocket 2.1 12:52:13 70° SE 12:52:36 73° ESE 12:58:20 10° NNE
Cosmos 1025 Rocket 3.5 12:53:00 55° W 12:53:10 55° W 12:57:28 10° N
Cosmos 1300 4.3 12:55:00 10° N 12:57:09 28° NNE 12:57:09 28° NNE
SL-08 R/B 4.4 12:52:54 10° N 12:59:16 71° E 13:00:04 63° SE
Lacrosse 5 rocket 2.7 13:02:47 32° N 13:02:47 32° N 13:05:16 10° NNE
Cosmos 2173 Rocket 4.4 12:58:31 10° NNW 13:04:44 57° W 13:06:26 44° SW
Cosmos 2016 Rocket 3.8 13:01:09 10° N 13:07:16 84° W 13:08:03 69° SSW
SL-24 R/B 4.4 13:04:24 10° N 13:08:55 76° NNW 13:08:55 76° NNW
Meteor 1-24 Rocket 3.7 13:09:59 65° ENE 13:09:59 65° ENE 13:14:53 10° NNE
Aureole 1 Rocket 4.1 13:04:36 10° NNW 13:10:46 82° WSW 13:12:06 62° S
ATLAS 3B R/B 2.6 13:10:08 39° SW 13:12:43 76° WNW 13:19:24 10° NNE
Cosmos 2219 Rocket 2.1 13:13:14 84° SW 13:13:26 88° WNW 13:19:09 10° NNE
Cosmos 1844 3.6 13:08:59 10° NNW 13:14:33 80° ENE 13:14:33 80° ENE
Cosmos 1340 4.4 13:18:08 32° NW 13:18:08 32° NW 13:20:37 10° N
Cosmos 1725 Rocket 3.8 13:11:28 10° N 13:17:39 81° W 13:18:16 72° SSW
Cosmos 1953 4.4 13:18:51 10° NW 13:21:37 21° W 13:21:37 21° W
Cosmos 1461 4.2 13:21:35 10° NNW 13:24:11 37° NNW 13:24:11 37° NNW
Cosmos 2237 Rocket 3.6 13:28:18 25° ENE 13:28:18 25° ENE 13:31:16 10° NE
USA 215 4.3 13:27:08 10° NNE 13:33:13 43° NW 13:39:19 10° WSW
Cosmos 2360 Rocket 4.3 13:30:27 10° WSW 13:34:44 22° WNW 13:39:02 10° N
Meteor 2-10 Rocket 4.0 13:32:09 10° N 13:36:13 51° NE 13:36:13 51° NE
Centaur D AC-29 3.5 13:21:36 10° W 13:36:35 35° SW 13:36:35 35° SW
ALOS 2 4.3 13:44:00 27° NE 13:44:00 27° NE 13:46:38 10° N
COSMOS 2428 3.0 13:43:47 59° W 13:44:08 60° WNW 13:49:50 10° NNE
ATLAS CENTAUR R/B 2.8 13:40:50 10° NNW 13:43:54 38° N 13:43:54 38° N
Terra 3.8 13:47:23 20° W 13:47:23 20° W 13:50:30 10° NW
Lacrosse 5 3.9 13:49:33 10° WNW 13:51:26 17° W 13:51:26 17° W
USA 267 4.0 14:00:50 34° E 14:03:12 47° NE 14:09:25 10° NNW
Cosmos 2278 Rocket 3.1 13:58:37 10° N 14:03:48 39° ENE 14:03:48 39° ENE
Cosmos 1844 Rocket 4.5 14:14:31 10° NW 14:17:49 21° W 14:17:49 21° W
Cosmos 1980 4.2 14:36:26 55° NW 14:36:26 55° NW 14:41:33 10° NNE
ATLAS CENTAUR R/B 3.2 14:49:33 61° WNW 14:49:56 62° NW 15:00:45 10° NE
Cosmos 1943 Rocket 4.3 14:50:32 10° NNE 14:54:20 19° ENE 14:56:25 15° E
NOSS 3-1 (C) 4.2 14:56:51 37° ENE 14:56:51 37° ENE 15:00:41 10° NE
SL-16 R/B 2.6 15:05:03 58° NE 15:05:03 58° NE 15:09:39 10° NNE
Cosmos 2237 Rocket 3.4 15:10:06 31° WNW 15:10:20 31° WNW 15:15:18 10° N
Resurs 1-4 Rocket 3.9 15:13:03 10° NE 15:16:35 21° E 15:16:35 21° E
CZ-2D R/B 3.8 15:16:47 10° NE 15:20:14 22° E 15:20:14 22° E
Cosmos 1634 Rocket 4.0 15:16:56 10° N 15:23:16 72° E 15:23:18 72° E
Cosmos 2369 Rocket 4.5 15:23:47 10° NNE 15:27:45 19° NE 15:31:42 10° E
Meteor 1-27 4.4 15:29:17 10° N 15:34:28 62° ENE 15:34:28 62° ENE
Cosmos 1607 4.2 15:29:04 10° NW 15:34:28 60° WNW 15:34:28 60° WNW
ADEOS II 4.3 15:34:48 10° ENE 15:37:28 14° E 15:38:04 14° E
SJ 16-02 2.7 15:35:05 10° N 15:38:01 38° NNE 15:38:01 38° NNE
Cosmos 2297 3.9 15:38:35 10° NNW 15:44:12 65° ENE 15:44:16 65° ENE
USA 267 4.1 15:48:09 35° W 15:48:09 35° W 15:52:21 10° WNW
Cosmos 2278 Rocket 4.0 15:43:13 10° NW 15:45:38 20° WNW 15:45:38 20° WNW
X-37B 3.9 15:54:40 13° NE 15:54:40 13° NE 15:55:04 10° NE
Cosmos 468 Rocket 4.3 15:53:05 59° ENE 15:53:05 59° ENE 15:57:32 10° NNE
Cosmos 1825 4.0 15:58:34 29° NNE 15:58:34 29° NNE 16:00:37 10° NNE
SL-16 R/B 3.5 15:54:24 28° ESE 15:57:00 42° ENE 16:02:45 10° N
Nadezhda 4 Rocket 4.4 15:56:36 48° ESE 15:57:25 51° E 16:03:20 10° NNE
DELTA 2 R/B (1) 4.0 16:11:37 51° ESE 16:11:37 51° ESE 16:16:00 10° ENE
In-Cosmos 22 Rocket 4.5 16:11:15 56° WNW 16:11:15 56° WNW 16:16:33 10° N
Cosmos 2058 3.9 16:12:26 44° NE 16:12:26 44° NE 16:15:23 10° NNE
ARGOS Delta rocket 4.1 16:06:40 10° NNE 16:12:10 75° E 16:12:18 75° ESE
BREEZE-M DEB (TANK) 4.5 16:09:41 40° W 16:12:31 71° NNW 16:39:56 10° ENE
Cosmos 2142 Rocket 4.4 16:07:29 10° NNW 16:13:33 65° W 16:13:40 64° W
Cosmos 1763 Rocket 3.5 16:15:14 70° NNW 16:15:14 70° NNW 16:19:55 10° NNE
SeaSat 1 4.2 16:11:34 10° ENE 16:15:14 21° ESE 16:15:34 21° ESE
Helios 1A 4.4 16:20:57 31° NW 16:20:57 31° NW 16:23:18 10° NNW
Exosat Rocket 4.2 16:19:07 57° WSW 16:20:25 69° WNW 16:26:13 10° NNE
Cosmos 1943 3.0 16:21:42 76° SSE 16:21:59 79° ESE 16:27:38 10° NNE
MOZ.5/SAFIR/RUBIN 5/SL-8 4.2 16:24:16 53° NW 16:24:16 53° NW 16:28:05 10° NNW
Cosmos 1603 3.5 16:25:27 78° SSW 16:25:52 89° ESE 16:31:34 10° NNE
Meteor 2-2 Rocket 4.5 16:20:11 10° N 16:26:13 72° E 16:27:44 51° SSE
AQUA 4.0 16:21:58 10° NNE 16:26:42 62° E 16:26:42 62° E
Cosmos 1437 Rocket 3.7 16:26:17 10° N 16:29:19 47° NNE 16:29:19 47° NNE
Cosmos 1092 Rocket 4.3 16:31:52 43° SSE 16:33:40 59° E 16:39:40 10° NNE
USA 229 DEB 4.1 16:32:54 40° W 16:34:32 48° NW 16:41:00 10° NNE
USA 229 4.1 16:33:00 40° W 16:34:38 48° NW 16:41:07 10° NNE
Helios 1B rocket 2.8 16:31:43 10° N 16:35:07 60° N 16:35:07 60° N
Cosmos 1606 4.0 16:33:24 10° NNE 16:36:57 35° E 16:37:05 35° E
Cosmos 1943 Rocket 2.4 16:33:02 10° NNW 16:37:53 52° W 16:37:53 52° W
ATLAS 5 CENTAUR R/B 4.1 16:33:22 37° SSW 16:38:38 47° S 17:32:20 10° ESE
IRS-1D 4.2 16:35:25 10° NNE 16:40:19 44° E 16:41:29 38° SE
Cosmos 921 Rocket 3.3 16:41:19 60° E 16:41:19 60° E 16:45:16 10° NNE
NPP 3.5 16:37:00 10° N 16:42:23 74° WNW 16:43:01 65° SW
NOSS 2-2 (C) 4.4 16:46:45 33° E 16:46:45 33° E 16:49:11 10° NE
USA 308 3.8 16:47:38 39° ESE 16:47:38 39° ESE 16:51:08 10° ENE
SL-16 R/B 4.3 16:46:54 13° WNW 16:48:41 15° NW 16:51:46 10° NNW
NOSS 3-1 (A) 4.3 16:52:48 28° W 16:54:22 33° NW 16:59:45 10° NNE
Resurs 1-4 Rocket 2.7 16:52:00 10° N 16:56:57 40° WNW 16:57:39 39° W
Meteor 1-29 3.6 16:55:14 10° N 16:57:56 53° N 16:57:56 53° N
Cosmos 841 Rocket 3.5 16:58:01 57° WSW 16:58:45 65° WNW 17:03:52 10° N
Cosmos 1076 Rocket 3.3 16:58:58 76° WNW 16:58:58 76° WNW 17:03:10 10° N
CZ-2D R/B 2.8 16:56:06 10° N 17:00:52 38° WNW 17:01:34 36° W
Cosmos 1898 Rocket 3.4 16:56:16 10° NNW 17:01:28 68° WSW 17:02:19 57° SSW
Cosmos 990 Rocket 4.1 16:57:16 10° NNW 17:02:17 51° WSW 17:02:21 51° WSW
Cosmos 2195 Rocket 4.4 17:00:17 44° SSW 17:02:31 84° W 17:08:51 10° N
Cosmos 2292 Rocket 4.3 17:05:26 29° ESE 17:05:48 30° E 17:08:32 10° NNE
OAO 1 4.4 17:05:14 54° SW 17:06:19 69° SSE 17:11:47 10° E
Cosmos 1242 Rocket 2.7 17:03:21 10° N 17:06:32 68° NNW 17:06:32 68° NNW
USA 305 2.8 17:07:15 71° SSE 17:07:29 73° SE 17:11:44 10° NE
Cosmos 540 Rocket 3.9 17:06:47 41° W 17:07:33 44° WNW 17:12:26 10° N
Landsat 4 3.7 17:03:56 10° N 17:07:33 69° WNW 17:07:33 69° WNW
Cosmos 2151 3.0 17:07:32 58° SSE 17:08:13 73° E 17:12:26 10° N
Cosmos 1937 Rocket 3.4 17:03:18 10° NNW 17:08:40 84° WSW 17:10:50 37° S
USA 281 4.1 17:03:37 10° SE 17:09:53 49° ENE 17:16:10 10° N
GPS 2-04 Rocket1 3.5 17:11:12 37° SE 17:11:12 37° SE 17:14:01 10° E
Cosmos 2369 Rocket 2.2 17:06:33 10° NNW 17:12:08 57° WSW 17:13:40 43° SSW
Cosmos 2221 3.1 17:08:33 10° NNW 17:12:13 40° WNW 17:12:13 40° WNW
Cosmos 2263 4.1 17:10:05 10° NNW 17:15:45 76° WSW 17:18:49 28° S
Cosmos 1570 Rocket 4.0 17:15:29 47° SW 17:16:54 68° WNW 17:22:07 10° NNE
ADEOS II 2.2 17:12:19 10° N 17:17:29 59° WNW 17:19:00 42° SW
Cosmos 1814 Rocket 4.1 17:18:11 45° SW 17:19:37 63° WNW 17:24:47 10° N
BREEZE-M DEB (TANK) 4.2 17:09:07 10° NW 17:23:12 76° NNE 17:26:52 10° ESE
Cosmos 1933 4.2 17:19:32 10° N 17:23:30 48° E 17:26:11 19° SSE
Cosmos 1633 3.5 17:25:44 33° WNW 17:25:44 33° WNW 17:28:34 10° NNW
Cosmos 2208 Rocket 4.1 17:24:32 40° SW 17:26:27 70° WNW 17:31:53 10° NNE
ADEOS Rocket 3.4 17:22:05 20° S 17:27:44 72° WSW 17:34:47 10° NNW
Cosmos 1656 Rocket 3.6 17:22:21 10° NNW 17:28:00 68° WSW 17:31:45 22° S
X-37B 3.5 17:27:29 10° NW 17:29:25 15° N 17:31:20 10° NNE
USA 306 2.9 17:28:27 48° WSW 17:29:31 71° NW 17:33:45 10° NE
Meteor 2-3 Rocket 3.6 17:31:05 29° S 17:34:07 89° W 17:39:44 10° N
IRS-1C 4.3 17:29:18 10° NNE 17:34:37 67° ESE 17:38:02 22° S
Cosmos 1809 Rocket 4.5 17:31:26 24° S 17:35:23 85° E 17:41:35 10° N
Cosmos 1553 Rocket 4.3 17:29:07 10° N 17:35:24 67° E 17:41:32 10° SSE
USA 290 2.8 17:35:39 43° WNW 17:35:39 43° WNW 17:38:44 10° N
ATLAS 5 CENTAUR R/B 1.4 17:34:44 45° WSW 17:35:40 60° NW 17:39:47 10° NNE
Aureole 3 Rocket 3.6 17:31:58 10° NNW 17:35:44 44° W 17:36:56 36° SW
MSX 3.9 17:30:32 10° NNE 17:36:19 76° ESE 17:40:08 22° S
IRIDIUM 103 4.4 17:31:22 10° N 17:36:36 76° E 17:40:42 17° S
IDEFIX/ARIANE 42P 2.5 17:34:33 10° N 17:39:47 71° WNW 17:42:26 29° SSW
SL-16 R/B 3.5 17:39:30 25° WSW 17:40:38 27° W 17:45:47 10° NW
Okean 3 Rocket 4.0 17:39:14 21° SSE 17:42:04 59° E 17:46:23 10° NNE
ARIANE 5 R/B 2.8 17:37:35 10° NNE 17:42:32 61° ESE 17:46:11 18° S
NOSS 2-2 (D) 3.9 17:43:15 31° W 17:43:58 35° NW 17:47:12 10° NNE
Cosmos 2026 Rocket 4.5 17:42:26 28° SW 17:45:14 44° W 17:51:12 10° N
Cosmos 1766 Rocket 3.8 17:43:13 22° S 17:46:02 70° E 17:50:27 10° NNE
CZ-4C R/B 3.5 17:45:20 11° SSE 17:48:51 26° ESE 17:53:05 10° NE
SeaSat 1 3.1 17:48:11 10° N 17:52:50 43° WNW 17:55:21 24° WSW
Meteor 1-26 Rocket 4.4 17:48:59 10° N 17:54:51 85° E 18:00:49 10° S
IRIDIUM 106 4.3 17:49:40 10° N 17:54:52 71° W 17:58:58 16° S
DELTA 2 R/B (1) 3.9 17:52:21 14° W 17:57:02 62° N 18:02:33 10° ENE
CZ-2C R/B 3.7 17:52:31 10° NNE 17:57:08 38° E 18:01:34 10° SSE
Cosmos 372 Rocket 4.2 17:52:10 10° NNW 17:57:14 51° WSW 18:01:43 13° S
Cosmos 1862 4.5 17:54:14 10° SSE 17:58:01 41° E 18:01:50 10° NNE
Chunghua 1 4.3 18:00:01 27° WSW 18:01:51 79° S 18:05:28 10° E
Cosmos 1151 Rocket 3.2 17:59:18 10° N 18:03:34 73° E 18:07:47 10° SSE
CZ-4B R/B 3.5 18:01:06 10° N 18:06:23 80° WNW 18:10:40 15° SSW
Meteor 2-21 Rocket 4.4 18:01:50 13° S 18:07:23 84° W 18:13:35 10° N
USA 307 4.1 18:08:42 16° W 18:11:28 33° NW 18:15:21 10° NNE
Spot 4 Rocket 4.3 18:06:38 10° NNE 18:11:46 70° ESE 18:16:52 10° S
SL-08 R/B 3.3 18:09:54 10° SSE 18:14:31 87° ENE 18:19:13 10° NNW
IRS-P3 4.5 18:09:52 10° N 18:14:59 49° WNW 18:19:00 16° SW
Cosmos 2266 Rocket 3.9 18:13:29 10° S 18:19:40 80° W 18:25:46 10° N
Cosmos 1655 Rocket 4.1 18:19:22 10° SSW 18:25:23 62° W 18:31:34 10° N
USA 308 4.5 18:23:44 11° W 18:27:12 26° NW 18:30:47 10° NNE
Tianhe-1 3.6 18:25:46 10° S 18:27:24 13° SE 18:29:03 10° ESE
PAYLOAD A 4.0 18:26:36 10° NNE 18:31:37 85° WNW 18:36:49 10° SSW
ATLAS 2A CENTAUR R/B 3.9 18:29:21 15° SW 18:32:08 36° SSE 18:42:36 10° ESE
PSLV R/B 4.4 18:33:12 10° NNE 18:37:27 52° E 18:41:42 10° S
Lacrosse 4 Rocket 1.4 18:34:26 10° NW 18:38:25 55° WSW 18:42:19 10° S
ATLAS 3B CENTAUR R/B 4.3 18:24:44 10° W 18:43:20 63° S 18:52:40 10° ESE
Cosmos 2298 Rocket 4.4 18:41:58 10° NNW 18:46:58 43° WSW 18:51:58 10° S
Cosmos 1782 4.0 18:44:27 10° NW 18:47:43 25° W 18:51:00 10° SW
Meteor 2-6 Rocket 4.3 18:43:06 10° NNW 18:48:59 74° W 18:54:42 10° S
GPS 2-04 Rocket1 2.5 18:45:50 10° W 18:49:41 89° N 18:53:21 10° E
Cosmos 1500 Rocket 3.5 18:48:51 10° S 18:53:11 79° W 18:57:32 10° N
ERBS 2.8 18:50:47 10° WSW 18:53:54 44° NW 18:57:01 10° NNE
USA 281 4.1 18:49:07 10° SSW 18:54:29 27° WSW 18:59:54 10° NW
Cosmos 1743 Rocket 3.5 18:51:32 10° S 18:55:52 75° W 19:00:15 10° N
CZ-2C R/B 3.1 18:54:09 10° N 18:57:54 47° WNW 19:01:32 10° SSW
Delta 2 Rocket 3.7 18:55:26 10° SW 18:58:58 40° SSE 19:02:13 10° E
deb Kosmos-1763 4.1 18:56:28 10° SSW 18:59:54 57° WNW 19:03:23 10° N
Cosmos 2315 Rocket 4.0 18:54:44 10° N 19:00:55 72° W 19:07:03 10° S
Cosmos 773 Rocket 4.1 18:56:07 10° SSW 19:01:23 80° WNW 19:06:43 10° NNE
Cosmos 1656 4.4 18:56:48 10° NNW 19:02:28 62° ENE 19:08:04 10° SSE
